Wichita Falls, TX

6:58 AM CDT on August 27, 2016 (GMT -0500)
Sheppard Air Force Base-Wichita Falls Municipal

Weather History for KSPS - March, 2013

Change the Weather History Date:

Thursday, March 7, 2013

  Actual Average Record
Temperature  
Mean Temperature 55 °F 52 °F  
Max Temperature 74 °F 64 °F 88 °F (1929)
Min Temperature 36 °F 39 °F 11 °F (1989)
Degree Days  
Heating Degree Days 10 14  
Month to date heating degree days 108 103  
Since 1 July heating degree days 2324 2549  
Cooling Degree Days 0 0  
Month to date cooling degree days 0 0  
Year to date cooling degree days 5 3  
Growing Degree Days 6 (Base 50)    
Moisture  
Dew Point 26 °F    
Average Humidity 33    
Maximum Humidity 52    
Minimum Humidity 14    
Precipitation  
Precipitation 0.00 in 0.08 in 2.61 in (1978)
Month to date precipitation T 0.56  
Year to date precipitation 2.68 3.45  
Snow  
Snow 0.00 in 0.10 in - ()
Month to date snowfall 0.0 0.2  
Since 1 July snowfall 3.5 3.6  
Snow Depth -    
Sea Level Pressure  
Sea Level Pressure 30.08 in    
Wind  
Wind Speed 15 mph (SSE)    
Max Wind Speed 25 mph    
Max Gust Speed 32 mph    
Visibility 10 miles    
Events      
T = Trace of Precipitation, MM = Missing Value Source: NWS Daily Summary

Daily Weather History Graph

Daily Weather History Graph

Search for Another Location

Airport or City:

Trip Planner

Search our weather history database for the weather conditions in past years. The results will help you decide how hot, cold, wet, or windy it might be!

Date:

Astronomy

Mar. 07, 2013 Rise Set
Actual Time 6:54 AM CST 6:35 PM CST
Civil Twilight 6:29 AM CST 7:00 PM CST
Nautical Twilight 6:00 AM CST 7:29 PM CST
Astronomical Twilight 5:31 AM CST 7:58 PM CST
Moon 3:45 AM CST (3/7) 2:34 PM CST (3/7)
Length of Visible Light 12h 30m
Length of Day
11h 40m
Waning Crescent, 20% of the Moon is Illuminated
Mar 7
Waning Crescent
Mar 11
New
Mar 19
First Quarter
Mar 27
Full
Apr 2
Last Quarter

Hourly Weather History & Observations

Time (CST) Temp. Windchill Dew Point Humidity Pressure Visibility Wind Dir Wind Speed Gust Speed Precip Events Conditions
12:52 AM 39.0 °F 34.0 °F 21.0 °F 49% 30.15 in 10.0 mi ESE 6.9 mph - N/A   Clear
1:52 AM 37.9 °F 32.1 °F 21.9 °F 53% 30.16 in 10.0 mi SE 8.1 mph - N/A   Clear
2:52 AM 37.0 °F 29.3 °F 21.9 °F 54% 30.14 in 10.0 mi SE 11.5 mph - N/A   Clear
3:52 AM 37.9 °F 32.7 °F 21.9 °F 53% 30.12 in 10.0 mi SE 6.9 mph - N/A   Clear
4:52 AM 39.9 °F 32.5 °F 21.9 °F 49% 30.11 in 10.0 mi SSE 12.7 mph - N/A   Clear
5:52 AM 41.0 °F 33.9 °F 21.9 °F 47% 30.11 in 10.0 mi SSE 12.7 mph - N/A   Clear
6:52 AM 39.2 °F 33.0 °F 23.0 °F 52% 30.13 in 10.0 mi SSE 9.2 mph - N/A   Partly Cloudy
7:52 AM 46.0 °F 39.9 °F 23.0 °F 40% 30.14 in 10.0 mi SSE 13.8 mph - N/A   Clear
8:52 AM 53.6 °F - 21.2 °F 28% 30.16 in 10.0 mi SSE 17.3 mph - N/A   Clear
9:52 AM 57.9 °F - 23.0 °F 26% 30.16 in 10.0 mi South 19.6 mph - N/A   Partly Cloudy
10:52 AM 62.1 °F - 23.0 °F 22% 30.14 in 10.0 mi South 19.6 mph - N/A   Partly Cloudy
11:52 AM 66.0 °F - 18.0 °F 16% 30.12 in 10.0 mi South 19.6 mph - N/A   Partly Cloudy
12:52 PM 69.1 °F - 19.9 °F 15% 30.08 in 10.0 mi South 16.1 mph 28.8 mph N/A   Partly Cloudy
1:52 PM 70.0 °F - 21.0 °F 16% 30.05 in 10.0 mi South 19.6 mph 27.6 mph N/A   Partly Cloudy
2:52 PM 72.0 °F - 21.9 °F 15% 30.02 in 10.0 mi South 21.9 mph 27.6 mph N/A   Partly Cloudy
3:52 PM 73.9 °F - 24.1 °F 16% 30.01 in 10.0 mi South 16.1 mph 25.3 mph N/A   Partly Cloudy
4:52 PM 73.0 °F - 21.9 °F 15% 29.99 in 10.0 mi SSE 16.1 mph - N/A   Partly Cloudy
5:52 PM 70.0 °F - 27.0 °F 20% 30.00 in 10.0 mi SSE 19.6 mph - N/A   Partly Cloudy
6:52 PM 64.0 °F - 30.0 °F 28% 30.02 in 10.0 mi SSE 13.8 mph - N/A   Partly Cloudy
7:52 PM 60.1 °F - 30.9 °F 33% 30.03 in 10.0 mi SE 12.7 mph - N/A   Scattered Clouds
8:52 PM 61.0 °F - 39.0 °F 44% 30.03 in 10.0 mi SSE 18.4 mph - N/A   Scattered Clouds
9:52 PM 59.0 °F - 39.0 °F 48% 30.04 in 10.0 mi SSE 18.4 mph - N/A   Clear
10:52 PM 57.0 °F - 39.0 °F 51% 30.05 in 10.0 mi SSE 11.5 mph - N/A   Clear
11:52 PM 57.2 °F - 41.0 °F 55% 30.06 in 10.0 mi SSE 10.4 mph - N/A   Clear